Regional Weather Roundup
Issued by NWS

Home | Current Version | Previous Version | Text Only | Print | Product List | Glossary On
Versions: 1 2 3 4 5 6 7 8 9 10 11 12 13 14 15 16 17 18 19 20 21 22 23 24 25 26 27 28 29 30 31 32 33 34 35 36 37 38 39 40 41 42 43 44 45 46 47 48 49 50
000
ASUS42 KKEY 031210
RWRKEY

FLORIDA REGIONAL WEATHER ROUNDUP FOR THE FLORIDA KEYS
NATIONAL WEATHER SERVICE KEY WEST FLORIDA
700 AM EST TUE MAR 03 2015

...SOUTH FLORIDA AND THE KEYS...

CITY           SKY/WX    TMP DP  RH WIND       PRES   REMARKS
FORT MYERS     FOG       64  64 100 E6        30.18R VSB 1/2
SW REGIONAL AP FOG       63  62  97 NE6       30.19R VSB 1/4
NAPLES         CLEAR     64  64 100 NE6       30.18R
MIAMI          PTCLDY    73  66  78 E7        30.18R
WEST KENDALL   PTCLDY    66  65  96 NE6       30.18R
HOMESTEAD      PTCLDY    72  65  79 E7        30.17R
MARATHON       CLEAR     74  68  81 E8G18     30.14R
BOCA CHICA NAS PTCLDY    74  67  78 E14       30.14R
KEY WEST INTL  CLEAR     74  68  81 E14       30.14R

...INTERNATIONAL WEATHER...

CITY           SKY/WX    TMP DP  RH WIND       PRES   REMARKS
NASSAU BAHAMAS PTCLDY    72  68  88 NE5       30.17R
CANCUN MEXICO  PTCLDY    77  72  83 NE6       30.06R
COZUMEL MEXICO PTCLDY    68  68 100 E5        30.05R

ADJACENT COASTAL WATERS...

STATION/POSITION TIME  SKY/WX   TEMP    WIND        PRES    WAVE
                                AIR SEA DIR/SP/G            HT/PER
                 (UTC)          (F)     (DEG/KT/KT) (MB)    (FT/S)
PULASKI SHOAL LI 1100            71      90/ 14/ 15 1020.0R
SAND KEY         1150            75      90/ 16/ 18 1020.2R
SOMBRERO KEY     1200            75      90/ 17/ 18 1021.1R
LONG KEY         1100            75 76  110/ 14/ 15 1021.3R
MOLASSES REEF    1200            74 75   90/ 14/ 15 1021.1R
FOWEY ROCKS      NOT AVBL
Buoy 42080       NOT AVBL

$$


USA.gov is the U.S. government's official web portal to all federal, state and local government web resources and services.